Hourly Weather Bolshoe Naryshkino

Today, 4 August, Wednesday

Time Temperature Precipitation Wind Pressure Humidity
00:00 +16°C° 0 mm 1 mps 743 mmHg 75%
01:00 +15°C° 0 mm 2 mps 743 mmHg 77%
02:00 +15°C° 0 mm 2 mps 743 mmHg 79%
03:00 +14°C° 0 mm 2 mps 743 mmHg 79%
04:00 +14°C° 0 mm 2 mps 744 mmHg 80%
05:00 +14°C° 0 mm 2 mps 744 mmHg 80%
06:00 +16°C° 0 mm 1 mps 744 mmHg 73%
07:00 +19°C° 0 mm 1 mps 744 mmHg 66%
08:00 +21°C° 0 mm 1 mps 745 mmHg 58%
09:00 +21°C° 0 mm 2 mps 745 mmHg 53%
10:00 +23°C° 0 mm 2 mps 745 mmHg 48%
11:00 +24°C° 0 mm 2 mps 745 mmHg 42%
12:00 +24°C° 0 mm 3 mps 745 mmHg 43%
13:00 +24°C° 0 mm 3 mps 745 mmHg 44%
14:00 +24°C° 0 mm 3 mps 745 mmHg 46%
15:00 +22°C° 0 mm 3 mps 745 mmHg 49%
16:00 +23°C° 0 mm 2 mps 745 mmHg 53%
17:00 +23°C° 0 mm 1 mps 745 mmHg 57%
18:00 +21°C° 0 mm 1 mps 745 mmHg 60%
19:00 +20°C° 0 mm 1 mps 745 mmHg 64%
20:00 +19°C° 0 mm 1 mps 745 mmHg 68%
21:00 +18°C° 0 mm 1 mps 745 mmHg 70%
22:00 +16°C° 0 mm 1 mps 745 mmHg 72%
23:00 +15°C° 0 mm 1 mps 745 mmHg 74%

Tomorrow, 5 August, Thursday

Time Temperature Precipitation Wind Pressure Humidity
00:00 +15°C° 0 mm 1 mps 745 mmHg 75%
01:00 +15°C° 0 mm 1 mps 745 mmHg 75%
02:00 +15°C° 0 mm 1 mps 745 mmHg 76%
03:00 +15°C° 0 mm 2 mps 745 mmHg 76%
04:00 +15°C° 0 mm 2 mps 745 mmHg 75%
05:00 +15°C° 0 mm 2 mps 745 mmHg 75%
06:00 +17°C° 0 mm 2 mps 745 mmHg 69%
07:00 +18°C° 0 mm 3 mps 745 mmHg 63%
08:00 +20°C° 0 mm 3 mps 744 mmHg 57%
09:00 +21°C° 0 mm 3 mps 744 mmHg 57%
10:00 +22°C° 0 mm 3 mps 744 mmHg 56%
11:00 +22°C° 0 mm 3 mps 744 mmHg 55%
12:00 +22°C° 0.1 mm 3 mps 744 mmHg 60%
13:00 +21°C° 0.1 mm 2 mps 744 mmHg 64%
14:00 +21°C° 0.1 mm 2 mps 743 mmHg 69%
15:00 +20°C° 0.3 mm 2 mps 743 mmHg 77%
16:00 +19°C° 0.3 mm 1 mps 743 mmHg 85%
17:00 +18°C° 0.3 mm 1 mps 743 mmHg 92%
18:00 +17°C° 0.7 mm 2 mps 743 mmHg 94%
19:00 +17°C° 0.7 mm 2 mps 743 mmHg 95%
20:00 +16°C° 0.7 mm 2 mps 742 mmHg 97%
21:00 +16°C° 0.1 mm 2 mps 742 mmHg 96%
22:00 +16°C° 0.1 mm 3 mps 742 mmHg 96%
23:00 +16°C° 0.1 mm 3 mps 741 mmHg 96%

Day after tomorrow, 6 August, Friday

Time Temperature Precipitation Wind Pressure Humidity
00:00 +16°C° 0.1 mm 3 mps 741 mmHg 96%
01:00 +16°C° 0.1 mm 2 mps 741 mmHg 96%
02:00 +16°C° 0.1 mm 2 mps 741 mmHg 96%
03:00 +17°C° 0.1 mm 2 mps 740 mmHg 94%
04:00 +17°C° 0.1 mm 3 mps 740 mmHg 93%
05:00 +17°C° 0.1 mm 3 mps 739 mmHg 92%
06:00 +17°C° 0.4 mm 3 mps 739 mmHg 91%
07:00 +18°C° 0.4 mm 3 mps 739 mmHg 90%
08:00 +18°C° 0.4 mm 3 mps 739 mmHg 89%
09:00 +20°C° 0 mm 3 mps 739 mmHg 83%
10:00 +21°C° 0 mm 3 mps 739 mmHg 76%
11:00 +22°C° 0 mm 4 mps 739 mmHg 70%
12:00 +25°C° 0 mm 4 mps 739 mmHg 63%
13:00 +27°C° 0 mm 4 mps 739 mmHg 56%
14:00 +29°C° 0 mm 4 mps 739 mmHg 49%
15:00 +29°C° 0 mm 3 mps 739 mmHg 51%
16:00 +29°C° 0 mm 2 mps 738 mmHg 54%
17:00 +28°C° 0 mm 2 mps 738 mmHg 57%
18:00 +27°C° 0 mm 2 mps 738 mmHg 59%
19:00 +26°C° 0 mm 2 mps 738 mmHg 61%
20:00 +24°C° 0 mm 2 mps 738 mmHg 62%
21:00 +23°C° 0 mm 2 mps 738 mmHg 64%
22:00 +21°C° 0 mm 2 mps 738 mmHg 66%
23:00 +20°C° 0 mm 2 mps 738 mmHg 68%

7 August, Saturday

Time Temperature Precipitation Wind Pressure Humidity
00:00 +20°C° 0.2 mm 2 mps 738 mmHg 73%
01:00 +19°C° 0.2 mm 2 mps 738 mmHg 78%
02:00 +19°C° 0.2 mm 1 mps 738 mmHg 83%
03:00 +18°C° 0.2 mm 2 mps 738 mmHg 84%
04:00 +19°C° 0.2 mm 2 mps 738 mmHg 85%
05:00 +19°C° 0.2 mm 2 mps 738 mmHg 87%
06:00 +20°C° 0.1 mm 2 mps 738 mmHg 84%
07:00 +22°C° 0.1 mm 3 mps 738 mmHg 80%
08:00 +24°C° 0.1 mm 3 mps 738 mmHg 77%
09:00 +26°C° 0 mm 3 mps 739 mmHg 70%
10:00 +27°C° 0 mm 3 mps 739 mmHg 62%
11:00 +29°C° 0 mm 3 mps 739 mmHg 55%
12:00 +29°C° 0 mm 3 mps 739 mmHg 55%
13:00 +28°C° 0 mm 4 mps 739 mmHg 55%
14:00 +28°C° 0 mm 4 mps 739 mmHg 55%
15:00 +28°C° 0 mm 3 mps 739 mmHg 57%
16:00 +28°C° 0 mm 3 mps 739 mmHg 59%
17:00 +28°C° 0 mm 3 mps 739 mmHg 61%
18:00 +26°C° 0 mm 3 mps 739 mmHg 66%
19:00 +24°C° 0 mm 2 mps 739 mmHg 71%
20:00 +23°C° 0 mm 2 mps 739 mmHg 76%
21:00 +21°C° 0 mm 2 mps 739 mmHg 76%
22:00 +22°C° 0 mm 1 mps 739 mmHg 75%
23:00 +21°C° 0 mm 1 mps 739 mmHg 74%

8 August, Sunday

Time Temperature Precipitation Wind Pressure Humidity
00:00 +21°C° 0 mm 1 mps 739 mmHg 77%
01:00 +20°C° 0 mm 2 mps 739 mmHg 79%
02:00 +19°C° 0 mm 2 mps 740 mmHg 81%
03:00 +19°C° 0.1 mm 2 mps 740 mmHg 85%
04:00 +19°C° 0.1 mm 2 mps 740 mmHg 89%
05:00 +20°C° 0.1 mm 1 mps 740 mmHg 92%
06:00 +20°C° 0.2 mm 1 mps 740 mmHg 93%
07:00 +20°C° 0.2 mm 1 mps 740 mmHg 93%
08:00 +20°C° 0.2 mm 1 mps 740 mmHg 93%
09:00 +21°C° 0.4 mm 1 mps 740 mmHg 92%
10:00 +21°C° 0.4 mm 1 mps 741 mmHg 91%
11:00 +20°C° 0.4 mm 2 mps 741 mmHg 91%
12:00 +20°C° 0.7 mm 2 mps 741 mmHg 90%
13:00 +20°C° 0.7 mm 2 mps 741 mmHg 90%
14:00 +20°C° 0.7 mm 3 mps 741 mmHg 89%
15:00 +20°C° 0.6 mm 3 mps 742 mmHg 90%
16:00 +20°C° 0.6 mm 3 mps 742 mmHg 90%
17:00 +19°C° 0.6 mm 3 mps 742 mmHg 90%
18:00 +19°C° 0.1 mm 2 mps 742 mmHg 92%
19:00 +18°C° 0.1 mm 2 mps 743 mmHg 93%
20:00 +18°C° 0.1 mm 1 mps 743 mmHg 95%
21:00 +18°C° 0 mm 1 mps 743 mmHg 94%
22:00 +18°C° 0 mm 1 mps 743 mmHg 94%
23:00 +16°C° 0 mm 1 mps 743 mmHg 94%

9 August, Monday

Time Temperature Precipitation Wind Pressure Humidity
00:00 +16°C° 0 mm 2 mps 743 mmHg 93%
01:00 +15°C° 0 mm 2 mps 743 mmHg 93%
02:00 +15°C° 0 mm 2 mps 744 mmHg 92%
03:00 +14°C° 0 mm 2 mps 744 mmHg 92%
04:00 +14°C° 0 mm 2 mps 744 mmHg 92%
05:00 +14°C° 0 mm 2 mps 744 mmHg 92%
06:00 +16°C° 0 mm 2 mps 744 mmHg 86%
07:00 +18°C° 0 mm 3 mps 744 mmHg 80%
08:00 +19°C° 0 mm 3 mps 744 mmHg 74%
09:00 +21°C° 0 mm 4 mps 744 mmHg 67%
10:00 +22°C° 0 mm 4 mps 744 mmHg 61%
11:00 +25°C° 0 mm 4 mps 744 mmHg 54%
12:00 +23°C° 0 mm 4 mps 745 mmHg 55%
13:00 +23°C° 0 mm 4 mps 745 mmHg 56%
14:00 +24°C° 0 mm 3 mps 745 mmHg 57%
15:00 +24°C° 0 mm 3 mps 745 mmHg 57%
16:00 +24°C° 0 mm 3 mps 745 mmHg 57%
17:00 +25°C° 0 mm 3 mps 744 mmHg 56%
18:00 +23°C° 0 mm 2 mps 744 mmHg 64%
19:00 +20°C° 0 mm 2 mps 744 mmHg 72%
20:00 +18°C° 0 mm 2 mps 744 mmHg 79%
21:00 +17°C° 0 mm 2 mps 744 mmHg 83%
22:00 +18°C° 0 mm 1 mps 744 mmHg 86%
23:00 +16°C° 0 mm 1 mps 744 mmHg 90%
Show more

We Need Your Consent

Meteoprog and our Service Providers may store and access personal data such as cookies, device identifiers or other similar technologies on your device and process such data to personalise content and ads, as well as provide social media features and to analyse the traffic.

  • Store and/or access information on your device

    Cookies, device identifiers or other information can be stored or accessed on your device for the purposes indicated above.

  • Personalised ads and content, ad and content measurement, audience insights, and products development

    Ads and content can be personalised based on a profile. More data can be added to better personalise ads and content. Ad and content performance can be measured. Insights about the audience who saw the ads and content can be derived. Such data can be used to develop or improve user’s experience, systems and software.

By clicking ‘I Agree’ you will allow the use of indicated cookies, device identifiers, web beacons or other similar technologies. Your settings can be changed in the browser on your device.

For certain purposes, legitimate interests may be relied on, rather than consent. You can read more about this in our Privacy and Cookie Policy.